• In Hungary
  • List of Countries
  • For 7 days
  • Water Temperature
  • Satellite Maps
  • Weather Map
  • News
  • Weather Widgets
  • user-avatar
    Login

    Hourly Weather Smolan

    Today, 17 December, Sunday

    Time Temperature Precipitation Wind Pressure Humidity
    00:00 +5°C° 0.6 mm 2 mps 649 mmHg 92%
    01:00 +4°C° 0.6 mm 2 mps 649 mmHg 93%
    02:00 +4°C° 0.6 mm 2 mps 649 mmHg 95%
    03:00 +4°C° 0.8 mm 2 mps 649 mmHg 95%
    04:00 +4°C° 0.8 mm 2 mps 648 mmHg 94%
    05:00 +4°C° 0.8 mm 2 mps 648 mmHg 94%
    06:00 +4°C° 0.9 mm 2 mps 648 mmHg 94%
    07:00 +4°C° 0.9 mm 2 mps 648 mmHg 94%
    08:00 +4°C° 0.9 mm 2 mps 648 mmHg 94%
    09:00 +4°C° 0.6 mm 2 mps 648 mmHg 93%
    10:00 +4°C° 0.6 mm 2 mps 648 mmHg 91%
    11:00 +4°C° 0.6 mm 2 mps 648 mmHg 90%
    12:00 +4°C° 0.5 mm 2 mps 649 mmHg 87%
    13:00 +4°C° 0.5 mm 2 mps 649 mmHg 85%
    14:00 +3°C° 0.5 mm 2 mps 649 mmHg 83%
    15:00 +3°C° 0.3 mm 2 mps 649 mmHg 84%
    16:00 +2°C° 0.3 mm 2 mps 649 mmHg 84%
    17:00 +1°C° 0.3 mm 2 mps 649 mmHg 85%
    18:00 +1°C° 0.1 mm 2 mps 650 mmHg 84%
    19:00 -1°C° 0.1 mm 2 mps 650 mmHg 84%
    20:00 -2°C° 0.1 mm 2 mps 651 mmHg 84%
    21:00 -2°C° 0 mm 2 mps 651 mmHg 84%
    22:00 -2°C° 0 mm 2 mps 651 mmHg 84%
    23:00 -3°C° 0 mm 2 mps 652 mmHg 84%

    Tomorrow, 18 December, Monday

    Time Temperature Precipitation Wind Pressure Humidity
    00:00 -3°C° 0 mm 2 mps 652 mmHg 83%
    01:00 -1°C° 0 mm 1 mps 653 mmHg 83%
    02:00 -1°C° 0 mm 1 mps 653 mmHg 83%
    03:00 -1°C° 0 mm 1 mps 653 mmHg 84%
    04:00 -1°C° 0 mm 1 mps 653 mmHg 84%
    05:00 -1°C° 0 mm 1 mps 653 mmHg 85%
    06:00 -1°C° 0 mm 1 mps 653 mmHg 86%
    07:00 -1°C° 0 mm 1 mps 654 mmHg 86%
    08:00 -1°C° 0 mm 1 mps 654 mmHg 87%
    09:00 -1°C° 0 mm 1 mps 654 mmHg 84%
    10:00 -2°C° 0 mm 2 mps 655 mmHg 81%
    11:00 -1°C° 0 mm 2 mps 655 mmHg 77%
    12:00 -1°C° 0.1 mm 2 mps 655 mmHg 76%
    13:00 -1°C° 0.1 mm 2 mps 654 mmHg 75%
    14:00 -1°C° 0.1 mm 2 mps 654 mmHg 74%
    15:00 -1°C° 0.1 mm 2 mps 654 mmHg 78%
    16:00 -2°C° 0.1 mm 2 mps 653 mmHg 81%
    17:00 -2°C° 0.1 mm 2 mps 653 mmHg 85%
    18:00 -3°C° 0.2 mm 2 mps 653 mmHg 86%
    19:00 -3°C° 0.2 mm 2 mps 653 mmHg 87%
    20:00 -3°C° 0.2 mm 2 mps 653 mmHg 88%
    21:00 -3°C° 0.4 mm 2 mps 653 mmHg 89%
    22:00 -5°C° 0.4 mm 3 mps 653 mmHg 89%
    23:00 -5°C° 0.4 mm 3 mps 653 mmHg 89%

    Day after tomorrow, 19 December, Tuesday

    Time Temperature Precipitation Wind Pressure Humidity
    00:00 -5°C° 0.7 mm 3 mps 653 mmHg 90%
    01:00 -5°C° 0.7 mm 3 mps 653 mmHg 90%
    02:00 -5°C° 0.7 mm 3 mps 653 mmHg 91%
    03:00 -6°C° 1 mm 3 mps 654 mmHg 91%
    04:00 -6°C° 1 mm 3 mps 654 mmHg 91%
    05:00 -6°C° 1 mm 3 mps 654 mmHg 92%
    06:00 -6°C° 0.8 mm 3 mps 654 mmHg 92%
    07:00 -6°C° 0.8 mm 3 mps 655 mmHg 92%
    08:00 -6°C° 0.8 mm 3 mps 655 mmHg 92%
    09:00 -6°C° 0.8 mm 3 mps 656 mmHg 92%
    10:00 -5°C° 0.8 mm 2 mps 656 mmHg 91%
    11:00 -5°C° 0.8 mm 2 mps 657 mmHg 91%
    12:00 -5°C° 0.7 mm 2 mps 657 mmHg 91%
    13:00 -5°C° 0.7 mm 2 mps 657 mmHg 90%
    14:00 -5°C° 0.7 mm 2 mps 657 mmHg 90%
    15:00 -5°C° 0.5 mm 2 mps 657 mmHg 91%
    16:00 -5°C° 0.5 mm 2 mps 657 mmHg 92%
    17:00 -5°C° 0.5 mm 2 mps 657 mmHg 93%
    18:00 -6°C° 0.4 mm 2 mps 657 mmHg 94%
    19:00 -6°C° 0.4 mm 2 mps 658 mmHg 94%
    20:00 -4°C° 0.4 mm 1 mps 658 mmHg 94%
    21:00 -4°C° 0.4 mm 1 mps 658 mmHg 94%
    22:00 -4°C° 0.4 mm 1 mps 658 mmHg 94%
    23:00 -6°C° 0.4 mm 1 mps 658 mmHg 94%

    20 December, Wednesday

    Time Temperature Precipitation Wind Pressure Humidity
    00:00 -6°C° 0.3 mm 1 mps 658 mmHg 94%
    01:00 -6°C° 0.3 mm 1 mps 658 mmHg 94%
    02:00 -6°C° 0.3 mm 1 mps 658 mmHg 94%
    03:00 -6°C° 0.3 mm 1 mps 657 mmHg 94%
    04:00 -6°C° 0.3 mm 1 mps 657 mmHg 94%
    05:00 -7°C° 0.3 mm 1 mps 657 mmHg 94%
    06:00 -7°C° 0.3 mm 1 mps 657 mmHg 94%
    07:00 -7°C° 0.3 mm 1 mps 657 mmHg 93%
    08:00 -7°C° 0.3 mm 1 mps 658 mmHg 93%
    09:00 -6°C° 0.2 mm 1 mps 658 mmHg 91%
    10:00 -4°C° 0.2 mm 1 mps 658 mmHg 88%
    11:00 -4°C° 0.2 mm 1 mps 659 mmHg 86%
    12:00 -4°C° 0.2 mm 1 mps 659 mmHg 86%
    13:00 -3°C° 0.2 mm 1 mps 658 mmHg 86%
    14:00 -3°C° 0.2 mm 1 mps 658 mmHg 86%
    15:00 -4°C° 0.1 mm 1 mps 658 mmHg 88%
    16:00 -6°C° 0.1 mm 1 mps 658 mmHg 90%
    17:00 -7°C° 0.1 mm 1 mps 658 mmHg 91%
    18:00 -7°C° 0 mm 1 mps 658 mmHg 91%
    19:00 -8°C° 0 mm 1 mps 659 mmHg 91%
    20:00 -10°C° 0 mm 2 mps 659 mmHg 91%
    21:00 -10°C° 0 mm 2 mps 659 mmHg 90%
    22:00 -12°C° 0 mm 2 mps 659 mmHg 88%
    23:00 -12°C° 0 mm 2 mps 659 mmHg 87%

    21 December, Thursday

    Time Temperature Precipitation Wind Pressure Humidity
    00:00 -12°C° 0 mm 2 mps 659 mmHg 86%
    01:00 -13°C° 0 mm 2 mps 659 mmHg 85%
    02:00 -13°C° 0 mm 2 mps 659 mmHg 83%
    03:00 -13°C° 0 mm 2 mps 659 mmHg 83%
    04:00 -13°C° 0 mm 2 mps 659 mmHg 82%
    05:00 -13°C° 0 mm 2 mps 659 mmHg 81%
    06:00 -13°C° 0 mm 2 mps 659 mmHg 81%
    07:00 -13°C° 0 mm 2 mps 659 mmHg 80%
    08:00 -13°C° 0 mm 2 mps 659 mmHg 80%
    09:00 -9°C° 0 mm 1 mps 660 mmHg 77%
    10:00 -7°C° 0 mm 1 mps 661 mmHg 75%
    11:00 -4°C° 0 mm 1 mps 661 mmHg 72%
    12:00 -3°C° 0 mm 1 mps 661 mmHg 74%
    13:00 -3°C° 0 mm 1 mps 661 mmHg 75%
    14:00 -3°C° 0 mm 1 mps 660 mmHg 77%
    15:00 -4°C° 0 mm 1 mps 660 mmHg 79%
    16:00 -6°C° 0 mm 1 mps 659 mmHg 82%
    17:00 -8°C° 0 mm 1 mps 659 mmHg 85%
    18:00 -8°C° 0 mm 1 mps 659 mmHg 85%
    19:00 -9°C° 0 mm 1 mps 659 mmHg 85%
    20:00 -9°C° 0 mm 1 mps 659 mmHg 84%
    21:00 -10°C° 0 mm 2 mps 659 mmHg 83%
    22:00 -10°C° 0 mm 2 mps 658 mmHg 81%
    23:00 -10°C° 0 mm 2 mps 658 mmHg 80%

    22 December, Friday

    Time Temperature Precipitation Wind Pressure Humidity
    00:00 -10°C° 0 mm 2 mps 658 mmHg 77%
    01:00 -10°C° 0 mm 2 mps 658 mmHg 73%
    02:00 -10°C° 0 mm 2 mps 657 mmHg 70%
    03:00 -10°C° 0 mm 2 mps 657 mmHg 70%
    04:00 -10°C° 0 mm 2 mps 657 mmHg 70%
    05:00 -9°C° 0 mm 2 mps 657 mmHg 69%
    06:00 -9°C° 0 mm 2 mps 657 mmHg 72%
    07:00 -8°C° 0 mm 2 mps 657 mmHg 74%
    08:00 -8°C° 0 mm 2 mps 657 mmHg 76%
    09:00 -4°C° 0 mm 1 mps 657 mmHg 79%
    10:00 -2°C° 0 mm 1 mps 658 mmHg 82%
    11:00 0°C° 0 mm 1 mps 658 mmHg 86%
    12:00 0°C° 0 mm 1 mps 658 mmHg 87%
    13:00 +1°C° 0 mm 1 mps 657 mmHg 88%
    14:00 +1°C° 0 mm 1 mps 657 mmHg 89%
    15:00 0°C° 0 mm 1 mps 656 mmHg 89%
    16:00 -1°C° 0 mm 1 mps 656 mmHg 89%
    17:00 -2°C° 0 mm 1 mps 655 mmHg 89%
    18:00 -2°C° 0 mm 1 mps 655 mmHg 88%
    19:00 -4°C° 0 mm 2 mps 655 mmHg 87%
    20:00 -4°C° 0 mm 2 mps 654 mmHg 86%
    21:00 -4°C° 0 mm 2 mps 654 mmHg 85%
    22:00 -2°C° 0 mm 1 mps 654 mmHg 85%
    23:00 -1°C° 0 mm 1 mps 654 mmHg 85%
    Show more